Stanton, MN

1:50 AM CST on December 09, 2019 (GMT -0600)
Stanton

Weather History for KSYN - October, 2019

Change the Weather History Date:

Tuesday, October 22, 2019

  Actual Average (WUND) Record (WUND)
Temperature  
Mean Temperature 42 °F -  
Max Temperature 45 °F - - (-1)
Min Temperature 40 °F - - (-1)
Degree Days  
Heating Degree Days 22    
Moisture  
Dew Point 37 °F    
Average Humidity 81    
Maximum Humidity 95    
Minimum Humidity 61    
Precipitation  
Precipitation 0.07 in - - ()
Sea Level Pressure  
Sea Level Pressure 29.48 in    
Wind  
Wind Speed 15 mph ()    
Max Wind Speed 26 mph    
Max Gust Speed 34 mph    
Visibility 9.0 miles    
Events Rain    
Averages and records for this station are not official NWS values.
T = Trace of Precipitation, MM = Missing Value Source: Averaged Metar Reports

Daily Weather History Graph

Daily Weather History Graph

Search for Another Location

Airport or City:

Astronomy

Oct. 22, 2019 Rise Set
Actual Time 7:35 AM CDT 6:16 PM CDT
Civil Twilight 7:06 AM CDT 6:46 PM CDT
Nautical Twilight 6:32 AM CDT 7:19 PM CDT
Astronomical Twilight 5:58 AM CDT 7:53 PM CDT
Moon 12:26 AM CDT (10/22) 3:44 PM CDT (10/22)
Length of Visible Light 11h 39m
Length of Day
10h 40m
Last Quarter, 37% of the Moon is Illuminated
Oct 22
Last Quarter
Oct 27
New
Nov 4
First Quarter
Nov 12
Full
Nov 19
Last Quarter

Hourly Weather History & Observations

Time (CDT) Temp. Windchill Dew Point Humidity Pressure Visibility Wind Dir Wind Speed Gust Speed Precip Events Conditions
12:15 AM 45.1 °F 43.7 °F 43.7 °F 95% 29.16 in 10.0 mi North 3.5 mph - N/A   Overcast
12:35 AM 45.1 °F - 43.7 °F 95% 29.16 in 10.0 mi Calm Calm - N/A   Overcast
12:36 AM 45.1 °F - 43.7 °F 95% 29.17 in 10.0 mi Calm Calm - N/A   Overcast
12:55 AM 45.1 °F 43.7 °F 43.7 °F 95% 29.17 in 5.0 mi NNW 3.5 mph - N/A   Light Drizzle
1:15 AM 45.1 °F 41.4 °F 43.9 °F 95% 29.18 in 10.0 mi NW 6.9 mph - N/A   Overcast
1:16 AM 45.1 °F 40.8 °F 43.9 °F 95% 29.18 in 10.0 mi NW 8.1 mph - N/A   Overcast
1:35 AM 45.1 °F 40.3 °F 43.7 °F 95% 29.19 in 5.0 mi NW 9.2 mph - N/A   Drizzle
1:55 AM 44.8 °F 37.7 °F 43.3 °F 95% 29.20 in 3.0 mi NW 16.1 mph 19.6 mph 0.01 in   Heavy Drizzle
1:56 AM 44.6 °F 38.1 °F 43.2 °F 95% 29.20 in 3.0 mi NW 13.8 mph 19.6 mph 0.01 in   Heavy Drizzle
2:15 AM 43.7 °F 35.7 °F 41.9 °F 93% 29.22 in 3.0 mi WNW 18.4 mph 27.6 mph N/A Rain Rain
2:35 AM 43.0 °F 35.1 °F 41.2 °F 93% 29.23 in 4.0 mi NW 17.3 mph 31.1 mph N/A Rain Light Rain
2:56 AM 42.8 °F 34.0 °F 41.0 °F 93% 29.24 in 4.0 mi WNW 20.7 mph 25.3 mph N/A Rain Rain
3:15 AM 42.6 °F 34.6 °F 40.6 °F 93% 29.26 in 3.0 mi NW 17.3 mph 29.9 mph N/A Rain Light Rain
3:35 AM 42.1 °F 33.3 °F 40.1 °F 93% 29.27 in 4.0 mi NW 19.6 mph 27.6 mph N/A Rain Light Rain
3:36 AM 42.1 °F 33.3 °F 40.1 °F 93% 29.27 in 4.0 mi NW 19.6 mph 27.6 mph N/A Rain Light Rain
3:55 AM 41.9 °F 32.6 °F 39.0 °F 90% 29.28 in 7.0 mi NW 21.9 mph 34.5 mph 0.01 in Rain Rain
4:15 AM 42.1 °F 36.1 °F 39.9 °F 92% 29.29 in 7.0 mi WNW 10.4 mph 20.7 mph N/A Rain Rain
4:35 AM 42.8 °F 35.8 °F 40.8 °F 93% 29.30 in 7.0 mi WNW 13.8 mph 18.4 mph 0.01 in Rain Light Rain
4:36 AM 42.8 °F 36.2 °F 41.0 °F 93% 29.30 in 7.0 mi WNW 12.7 mph 18.4 mph 0.01 in Rain Light Rain
4:55 AM 43.3 °F 34.7 °F 41.0 °F 91% 29.31 in 7.0 mi WNW 20.7 mph 25.3 mph 0.01 in Rain Light Rain
5:15 AM 43.0 °F 33.8 °F 40.6 °F 91% 29.32 in 5.0 mi WNW 23.0 mph 28.8 mph 0.01 in Rain Light Rain
5:35 AM 42.8 °F 33.3 °F 40.1 °F 90% 29.33 in 7.0 mi WNW 24.2 mph 31.1 mph 0.02 in Rain Rain
5:55 AM 42.8 °F 34.0 °F 39.7 °F 89% 29.35 in 10.0 mi West 20.7 mph 32.2 mph 0.02 in Rain Light Rain
5:56 AM 42.8 °F 33.5 °F 39.7 °F 89% 29.34 in 10.0 mi WNW 23.0 mph 32.2 mph 0.03 in Rain Light Rain
6:15 AM 42.3 °F 32.8 °F 39.6 °F 90% 29.36 in 10.0 mi WNW 23.0 mph 28.8 mph N/A   Drizzle
6:16 AM 42.3 °F 33.1 °F 39.6 °F 90% 29.36 in 10.0 mi WNW 21.9 mph 28.8 mph N/A   Drizzle
6:35 AM 42.1 °F 32.6 °F 39.2 °F 90% 29.36 in 7.0 mi WNW 23.0 mph 29.9 mph 0.01 in   Drizzle
6:55 AM 41.9 °F 32.8 °F 39.2 °F 90% 29.37 in 10.0 mi West 20.7 mph 31.1 mph 0.01 in   Drizzle
6:56 AM 41.9 °F 33.1 °F 39.2 °F 90% 29.37 in 10.0 mi West 19.6 mph 29.9 mph 0.01 in   Drizzle
7:15 AM 41.9 °F 32.8 °F 39.0 °F 90% 29.38 in 10.0 mi West 20.7 mph 33.4 mph N/A   Drizzle
7:35 AM 41.5 °F 32.1 °F 38.7 °F 89% 29.39 in 7.0 mi West 21.9 mph 33.4 mph N/A   Drizzle
7:55 AM 41.4 °F 31.2 °F 38.1 °F 88% 29.40 in 10.0 mi West 25.3 mph 34.5 mph N/A   Light Drizzle
8:15 AM 41.4 °F 31.9 °F 37.8 °F 87% 29.41 in 10.0 mi West 21.9 mph 33.4 mph N/A   Light Drizzle
8:16 AM 41.4 °F 31.9 °F 37.8 °F 87% 29.41 in 10.0 mi West 21.9 mph 33.4 mph N/A   Light Drizzle
8:35 AM 41.2 °F 31.4 °F 37.8 °F 88% 29.42 in 10.0 mi West 23.0 mph 34.5 mph N/A   Light Drizzle
8:36 AM 41.0 °F 31.1 °F 37.8 °F 88% 29.42 in 10.0 mi West 23.0 mph 34.5 mph N/A   Light Drizzle
8:55 AM 41.0 °F 30.7 °F 37.8 °F 88% 29.43 in 10.0 mi West 25.3 mph 29.9 mph N/A   Drizzle
9:15 AM 40.8 °F 31.7 °F 37.9 °F 89% 29.44 in 7.0 mi West 19.6 mph 29.9 mph N/A   Drizzle
9:16 AM 40.8 °F 31.7 °F 37.9 °F 89% 29.44 in 7.0 mi West 19.6 mph 29.9 mph N/A   Drizzle
9:35 AM 41.0 °F 30.7 °F 38.1 °F 89% 29.44 in 10.0 mi West 25.3 mph 29.9 mph N/A   Light Drizzle
9:36 AM 41.0 °F 31.1 °F 37.9 °F 89% 29.45 in 10.0 mi West 23.0 mph 29.9 mph N/A   Light Drizzle
9:55 AM 41.0 °F 30.9 °F 38.3 °F 90% 29.45 in 5.0 mi West 24.2 mph 31.1 mph N/A   Drizzle
10:15 AM 41.0 °F 31.6 °F 38.1 °F 89% 29.46 in 10.0 mi West 20.7 mph 28.8 mph N/A   Light Drizzle
10:16 AM 41.0 °F 31.6 °F 38.1 °F 89% 29.46 in 10.0 mi West 20.7 mph 28.8 mph N/A   Light Drizzle
10:35 AM 40.8 °F 31.1 °F 38.1 °F 90% 29.47 in 10.0 mi West 21.9 mph 25.3 mph N/A   Light Drizzle
10:55 AM 40.5 °F 31.8 °F 37.4 °F 89% 29.48 in 10.0 mi West 17.3 mph 32.2 mph N/A   Overcast
10:56 AM 40.5 °F 31.8 °F 37.4 °F 89% 29.48 in 10.0 mi West 17.3 mph 32.2 mph N/A   Overcast
11:15 AM 40.6 °F 31.2 °F 37.0 °F 87% 29.49 in 10.0 mi West 20.7 mph 28.8 mph N/A   Overcast
11:35 AM 40.6 °F 30.9 °F 37.2 °F 88% 29.50 in 10.0 mi West 21.9 mph 28.8 mph N/A   Light Drizzle
11:55 AM 40.6 °F 31.2 °F 37.2 °F 88% 29.51 in 10.0 mi West 20.7 mph 29.9 mph N/A   Light Drizzle
12:15 PM 40.6 °F 30.9 °F 36.9 °F 86% 29.51 in 10.0 mi West 21.9 mph 32.2 mph N/A   Light Drizzle
12:16 PM 40.6 °F 31.2 °F 36.9 °F 86% 29.51 in 10.0 mi West 20.7 mph 32.2 mph N/A   Light Drizzle
12:35 PM 41.0 °F 32.5 °F 37.2 °F 86% 29.51 in 10.0 mi West 17.3 mph 28.8 mph N/A   Overcast
12:36 PM 41.0 °F 32.8 °F 37.2 °F 86% 29.51 in 10.0 mi West 16.1 mph 28.8 mph N/A   Overcast
12:55 PM 41.0 °F 31.9 °F 37.0 °F 86% 29.52 in 10.0 mi West 19.6 mph 27.6 mph N/A Rain Light Rain
1:15 PM 41.5 °F 32.4 °F 37.4 °F 85% 29.52 in 10.0 mi West 20.7 mph 27.6 mph N/A   Light Drizzle
1:35 PM 41.4 °F 31.6 °F 36.7 °F 83% 29.52 in 10.0 mi West 23.0 mph 29.9 mph N/A   Overcast
1:36 PM 41.4 °F 31.9 °F 36.7 °F 83% 29.53 in 10.0 mi West 21.9 mph 29.9 mph N/A   Overcast
1:55 PM 42.4 °F 34.4 °F 36.9 °F 81% 29.53 in 10.0 mi West 17.3 mph 28.8 mph N/A   Overcast
1:56 PM 42.6 °F 34.3 °F 36.9 °F 80% 29.53 in 10.0 mi West 18.4 mph 28.8 mph N/A   Overcast
2:15 PM 43.2 °F 35.0 °F 36.9 °F 78% 29.54 in 10.0 mi West 18.4 mph 26.5 mph N/A   Overcast
2:16 PM 43.2 °F 35.0 °F 36.9 °F 78% 29.54 in 10.0 mi West 18.4 mph 26.5 mph N/A   Overcast
2:35 PM 43.3 °F 34.2 °F 36.3 °F 76% 29.54 in 10.0 mi West 23.0 mph 31.1 mph N/A   Overcast
2:36 PM 43.3 °F 34.2 °F 36.1 °F 76% 29.54 in 10.0 mi West 23.0 mph 31.1 mph N/A   Overcast
2:55 PM 43.9 °F 35.9 °F 36.3 °F 75% 29.55 in 10.0 mi West 18.4 mph 25.3 mph N/A   Overcast
3:15 PM 44.6 °F 35.5 °F 36.0 °F 72% 29.56 in 10.0 mi West 25.3 mph 32.2 mph N/A   Overcast
3:35 PM 45.0 °F 36.4 °F 36.3 °F 72% 29.57 in 10.0 mi West 23.0 mph 29.9 mph N/A   Overcast
3:55 PM 45.5 °F 38.1 °F 36.3 °F 70% 29.58 in 10.0 mi West 18.4 mph 25.3 mph N/A   Overcast
4:15 PM 45.5 °F 36.7 °F 35.8 °F 69% 29.58 in 10.0 mi West 25.3 mph 32.2 mph N/A   Overcast
4:16 PM 45.5 °F 36.5 °F 35.6 °F 68% 29.58 in 10.0 mi West 26.5 mph 32.2 mph N/A   Overcast
4:35 PM 45.3 °F 36.9 °F 35.2 °F 68% 29.59 in 10.0 mi West 23.0 mph 31.1 mph N/A   Overcast
4:36 PM 45.3 °F 37.3 °F 35.2 °F 68% 29.59 in 10.0 mi West 20.7 mph 31.1 mph N/A   Overcast
4:55 PM 45.5 °F 36.9 °F 35.1 °F 67% 29.60 in 10.0 mi West 24.2 mph 29.9 mph N/A   Overcast
5:15 PM 45.5 °F 37.3 °F 35.8 °F 69% 29.61 in 10.0 mi West 21.9 mph 27.6 mph N/A   Overcast
5:35 PM 45.5 °F 38.3 °F 35.2 °F 67% 29.62 in 10.0 mi WNW 17.3 mph 29.9 mph N/A   Overcast
5:55 PM 45.5 °F 37.1 °F 34.9 °F 66% 29.63 in 10.0 mi WNW 23.0 mph 32.2 mph N/A   Overcast
6:15 PM 45.5 °F 38.1 °F 34.3 °F 65% 29.63 in 10.0 mi West 18.4 mph 28.8 mph N/A   Overcast
6:16 PM 45.5 °F 38.1 °F 34.3 °F 65% 29.63 in 10.0 mi West 18.4 mph 28.8 mph N/A   Overcast
6:35 PM 45.1 °F 37.9 °F 34.5 °F 66% 29.64 in 10.0 mi West 17.3 mph 23.0 mph N/A   Overcast
6:55 PM 45.5 °F 38.3 °F 33.4 °F 63% 29.65 in 10.0 mi West 17.3 mph 29.9 mph N/A   Overcast
7:15 PM 45.5 °F 38.9 °F 33.1 °F 62% 29.65 in 10.0 mi West 15.0 mph 24.2 mph N/A   Overcast
7:35 PM 45.3 °F 39.0 °F 32.9 °F 62% 29.66 in 10.0 mi West 13.8 mph 19.6 mph N/A   Overcast
7:55 PM 45.0 °F 39.3 °F 32.9 °F 63% 29.67 in 10.0 mi West 11.5 mph 19.6 mph N/A   Overcast
8:15 PM 45.0 °F 37.9 °F 32.4 °F 61% 29.67 in 10.0 mi West 16.1 mph 21.9 mph N/A   Overcast
8:35 PM 45.0 °F 38.2 °F 32.2 °F 61% 29.67 in 10.0 mi West 15.0 mph 20.7 mph N/A   Overcast
8:55 PM 44.6 °F 37.8 °F 32.0 °F 61% 29.68 in 10.0 mi West 15.0 mph 20.7 mph N/A   Overcast
9:15 PM 44.6 °F 37.2 °F 31.8 °F 61% 29.68 in 10.0 mi West 17.3 mph 24.2 mph N/A   Overcast
9:16 PM 44.6 °F 37.4 °F 31.8 °F 61% 29.68 in 10.0 mi West 16.1 mph 24.2 mph N/A   Overcast
9:35 PM 44.2 °F 37.3 °F 32.0 °F 62% 29.69 in 10.0 mi West 15.0 mph 21.9 mph N/A   Overcast
9:36 PM 44.2 °F 37.0 °F 32.0 °F 62% 29.69 in 10.0 mi West 16.1 mph 21.9 mph N/A   Overcast
9:55 PM 44.2 °F 37.0 °F 31.8 °F 62% 29.69 in 10.0 mi West 16.1 mph 24.2 mph N/A   Overcast
10:15 PM 44.1 °F 36.5 °F 31.6 °F 62% 29.70 in 10.0 mi West 17.3 mph 21.9 mph N/A   Overcast
10:16 PM 43.9 °F 36.2 °F 31.8 °F 63% 29.70 in 10.0 mi West 17.3 mph 21.9 mph N/A   Overcast
10:35 PM 43.7 °F 35.7 °F 31.6 °F 63% 29.70 in 10.0 mi West 18.4 mph 24.2 mph N/A   Overcast
10:55 PM 43.3 °F 35.5 °F 31.8 °F 64% 29.70 in 10.0 mi West 17.3 mph 24.2 mph N/A   Overcast
11:15 PM 42.8 °F 35.4 °F 32.0 °F 66% 29.70 in 10.0 mi West 15.0 mph 24.2 mph N/A   Overcast
11:16 PM 42.8 °F 35.8 °F 32.0 °F 66% 29.70 in 10.0 mi West 13.8 mph 24.2 mph N/A   Overcast
11:35 PM 41.4 °F 33.6 °F 31.8 °F 69% 29.71 in 10.0 mi West 15.0 mph - N/A   Mostly Cloudy
11:55 PM 40.5 °F 34.1 °F 31.3 °F 70% 29.71 in 10.0 mi West 10.4 mph 18.4 mph N/A   Clear